Date String (YYYY-MM-DD hh:mm:ss) UTC,Instrument flags,absolute air pressure of the measurement (hPa),sample flow rate (lpm),inlet stack bypass flow (lpm),air temperature of the measurement (°C),ambient temperature measured by the external sensor (°C),aerosol sample conditioner tube jacket temperature (°C),OPC LED temperature (°C),internal box temperature (°C),relative humidity of the measurement (%),span deviation,mass concentration of particles derived from Lorenz-Mie calculation of OPC scattering (μg/m³),mass concentration of particles derived from Lorenz-Mie calculation of OPC scattering (μg/m³),mass concentration of particles derived from Lorenz-Mie calculation of OPC scattering (μg/m³)
DateTimeUTC,F1_M11,P_M11,Q1_M11,Q2_M11,T1_M11,T2_M11,T3_M11,T4_M11,T5_M11,U1_M11,ZSPAN_M11,X2_M11,X0_M11,X1_M11
2024-03-12 05:00:00,SystemResetWarning,0824.5,5.00,000.00,022.4,021.6,000.0,031.0,024.2,13.2,0000.0,0003.55,0011.36,0001.61
2024-03-12 05:01:00,SystemResetWarning,0824.4,5.00,000.00,022.4,021.6,000.0,031.0,024.2,13.1,0000.0,0003.57,0010.49,0001.63
2024-03-12 05:02:00,SystemResetWarning,0824.5,5.00,000.00,022.4,021.6,000.0,031.0,024.2,13.1,0000.0,0003.60,0010.78,0001.62
2024-03-12 05:03:00,SystemResetWarning,0824.5,5.00,000.00,022.4,021.6,000.0,031.0,024.2,13.1,0000.0,0003.63,0011.68,0001.61
2024-03-12 05:04:00,SystemResetWarning,0824.5,5.00,000.00,022.4,021.6,000.0,031.0,024.2,13.0,0000.0,0003.68,0012.68,0001.60
2024-03-12 05:05:00,SystemResetWarning,0824.5,5.00,000.00,022.4,021.6,000.0,031.0,024.2,13.0,0000.0,0003.71,0012.99,0001.61
2024-03-12 05:06:00,SystemResetWarning,0824.6,5.00,000.00,022.4,021.6,000.0,031.0,024.2,13.0,0000.0,0003.72,0013.17,0001.62
2024-03-12 05:07:00,SystemResetWarning,0824.6,5.00,000.00,022.4,021.5,000.0,030.9,024.2,13.1,0000.0,0003.70,0013.50,0001.63
2024-03-12 05:08:00,SystemResetWarning,0824.7,5.00,000.00,022.4,021.5,000.0,030.9,024.2,13.1,0000.0,0003.64,0013.29,0001.64
2024-03-12 05:09:00,SystemResetWarning,0824.7,5.00,000.00,022.4,021.5,000.0,030.9,024.2,13.1,0000.0,0003.67,0013.25,0001.63
2024-03-12 05:10:00,SystemResetWarning,0824.7,5.00,000.00,022.3,021.5,000.0,030.9,024.2,13.1,0000.0,0003.74,0013.09,0001.63
2024-03-12 05:11:00,SystemResetWarning,0824.7,5.00,000.00,022.3,021.5,000.0,030.9,024.2,13.1,0000.0,0003.75,0013.03,0001.62
2024-03-12 05:12:00,SystemResetWarning,0824.7,5.00,000.00,022.3,021.5,000.0,030.9,024.2,13.1,0000.0,0003.75,0013.04,0001.61
2024-03-12 05:13:00,SystemResetWarning,0824.7,4.99,000.00,022.3,021.5,000.0,030.9,024.2,13.0,0000.0,0003.77,0013.02,0001.62
2024-03-12 05:14:00,SystemResetWarning,0824.7,5.00,000.00,022.3,021.5,000.0,030.9,024.2,12.9,0000.0,0003.76,0012.40,0001.61
2024-03-12 05:15:00,SystemResetWarning,0824.7,5.01,000.00,022.3,021.5,000.0,030.9,024.1,12.8,0000.0,0003.73,0011.62,0001.62
2024-03-12 05:16:00,SystemResetWarning,0824.7,5.01,000.00,022.3,021.5,000.0,030.9,024.1,12.8,0000.0,0003.70,0012.13,0001.62
2024-03-12 05:17:00,SystemResetWarning,0824.7,4.99,000.00,022.3,021.5,000.0,030.9,024.1,12.9,0000.0,0003.72,0012.24,0001.62
2024-03-12 05:18:00,SystemResetWarning,0824.7,4.99,000.00,022.3,021.5,000.0,030.9,024.1,12.8,0000.0,0003.70,0012.18,0001.60
2024-03-12 05:19:00,SystemResetWarning,0824.7,4.99,000.00,022.3,021.5,000.0,030.8,024.1,12.9,0000.0,0003.71,0012.19,0001.60
2024-03-12 05:20:00,SystemResetWarning,0824.7,5.01,000.00,022.3,021.5,000.0,030.8,024.1,12.9,0000.0,0003.68,0012.44,0001.59
2024-03-12 05:21:00,SystemResetWarning,0824.7,5.01,000.00,022.3,021.5,000.0,030.8,024.1,12.8,0000.0,0003.63,0011.83,0001.59
2024-03-12 05:22:00,SystemResetWarning,0824.7,5.00,000.00,022.3,021.5,000.0,030.8,024.1,12.8,0000.0,0003.67,0011.54,0001.61
2024-03-12 05:23:00,SystemResetWarning,0824.7,4.99,000.00,022.3,021.5,000.0,030.8,024.2,12.6,0000.0,0003.65,0012.14,0001.61
2024-03-12 05:24:00,SystemResetWarning,0824.7,4.99,000.00,022.3,021.6,000.0,030.8,024.2,12.7,0000.0,0003.63,0012.28,0001.60
2024-03-12 05:25:00,SystemResetWarning,0824.7,5.01,000.00,022.3,021.6,000.0,030.8,024.1,12.7,0000.0,0003.64,0012.47,0001.61
2024-03-12 05:26:00,SystemResetWarning,0824.7,5.01,000.00,022.3,021.6,000.0,030.8,024.1,12.7,0000.0,0003.65,0012.31,0001.63
2024-03-12 05:27:00,SystemResetWarning,0824.7,5.00,000.00,022.3,021.6,000.0,030.8,024.2,12.7,0000.0,0003.68,0012.18,0001.63
2024-03-12 05:28:00,SystemResetWarning,0824.7,4.99,000.00,022.3,021.6,000.0,030.8,024.2,12.4,0000.0,0003.68,0012.40,0001.63
2024-03-12 05:29:00,SystemResetWarning,0824.7,4.99,000.00,022.3,021.6,000.0,030.8,024.2,12.3,0000.0,0003.64,0012.00,0001.63
2024-03-12 05:30:00,SystemResetWarning,0824.7,5.00,000.00,022.3,021.6,000.0,030.8,024.2,12.2,0000.0,0003.59,0012.40,0001.62
2024-03-12 05:31:00,SystemResetWarning,0824.7,5.00,000.00,022.3,021.6,000.0,030.8,024.2,12.3,0000.0,0003.58,0013.02,0001.65
2024-03-12 05:32:00,SystemResetWarning,0824.7,5.00,000.00,022.3,021.6,000.0,030.8,024.1,12.3,0000.0,0003.61,0012.81,0001.66
2024-03-12 05:33:00,SystemResetWarning,0824.7,5.00,000.00,022.3,021.6,000.0,030.8,024.1,12.4,0000.0,0003.58,0013.09,0001.65
2024-03-12 05:34:00,SystemResetWarning,0824.7,5.01,000.00,022.3,021.5,000.0,030.8,024.1,12.4,0000.0,0003.57,0012.55,0001.64
2024-03-12 05:35:00,SystemResetWarning,0824.7,5.01,000.00,022.3,021.5,000.0,030.8,024.1,12.4,0000.0,0003.60,0012.38,0001.63
2024-03-12 05:36:00,SystemResetWarning,0824.7,5.01,000.00,022.3,021.5,000.0,030.8,024.1,12.3,0000.0,0003.60,0012.02,0001.61
2024-03-12 05:37:00,SystemResetWarning,0824.7,4.99,000.00,022.3,021.5,000.0,030.8,024.1,12.3,0000.0,0003.58,0011.93,0001.60
2024-03-12 05:38:00,SystemResetWarning,0824.8,4.99,000.00,022.3,021.5,000.0,030.8,024.1,12.2,0000.0,0003.54,0011.62,0001.58
2024-03-12 05:39:00,SystemResetWarning,0824.7,5.00,000.00,022.3,021.5,000.0,030.8,024.1,12.1,0000.0,0003.55,0011.11,0001.57
2024-03-12 05:40:00,SystemResetWarning,0824.7,5.00,000.00,022.3,021.4,000.0,030.8,024.1,12.1,0000.0,0003.62,0011.29,0001.58
2024-03-12 05:41:00,SystemResetWarning,0824.6,5.01,000.00,022.3,021.4,000.0,030.8,024.1,12.0,0000.0,0003.69,0010.93,0001.58
2024-03-12 05:42:00,SystemResetWarning,0824.6,5.00,000.00,022.3,021.4,000.0,030.8,024.0,12.0,0000.0,0003.75,0010.50,0001.57
2024-03-12 05:43:00,SystemResetWarning,0824.6,4.99,000.00,022.2,021.3,000.0,030.8,024.0,12.1,0000.0,0003.69,0010.13,0001.54
2024-03-12 05:44:00,SystemResetWarning,0824.6,4.99,000.00,022.2,021.3,000.0,030.8,024.0,12.1,0000.0,0003.74,0010.12,0001.54
2024-03-12 05:45:00,SystemResetWarning,0824.5,5.01,000.00,022.2,021.2,000.0,030.8,024.0,12.0,0000.0,0003.76,0009.93,0001.55
2024-03-12 05:46:00,SystemResetWarning,0824.5,5.01,000.00,022.2,021.2,000.0,030.8,023.9,12.0,0000.0,0003.76,0009.76,0001.56
2024-03-12 05:47:00,SystemResetWarning,0824.5,4.99,000.00,022.2,021.2,000.0,030.8,023.9,12.0,0000.0,0003.72,0009.61,0001.55
2024-03-12 05:48:00,SystemResetWarning,0824.5,4.99,000.00,022.1,021.2,000.0,030.8,023.9,12.0,0000.0,0003.69,0009.44,0001.53
2024-03-12 05:49:00,SystemResetWarning,0824.4,5.01,000.00,022.1,021.1,000.0,030.7,023.9,12.0,0000.0,0003.70,0009.46,0001.53
2024-03-12 05:50:00,SystemResetWarning,0824.5,5.01,000.00,022.1,021.1,000.0,030.7,023.9,12.0,0000.0,0003.65,0009.55,0001.52
2024-03-12 05:51:00,SystemResetWarning,0824.5,4.99,000.00,022.1,021.1,000.0,030.7,023.9,12.0,0000.0,0003.59,0009.40,0001.50
2024-03-12 05:52:00,SystemResetWarning,0824.4,4.99,000.00,022.1,021.1,000.0,030.7,023.9,12.0,0000.0,0003.57,0009.72,0001.48
2024-03-12 05:53:00,SystemResetWarning,0824.4,5.01,000.00,022.1,021.1,000.0,030.7,023.8,11.9,0000.0,0003.52,0010.49,0001.46
2024-03-12 05:54:00,SystemResetWarning,0824.5,5.00,000.00,022.1,021.1,000.0,030.7,023.8,11.7,0000.0,0003.57,0010.82,0001.47
2024-03-12 05:55:00,SystemResetWarning,0824.5,5.00,000.00,022.0,021.1,000.0,030.7,023.8,11.9,0000.0,0003.53,0010.87,0001.47
2024-03-12 05:56:00,SystemResetWarning,0824.5,5.00,000.00,022.0,021.0,000.0,030.7,023.8,11.9,0000.0,0003.56,0011.51,0001.45
2024-03-12 05:57:00,SystemResetWarning,0824.5,4.99,000.00,022.0,021.0,000.0,030.7,023.8,11.9,0000.0,0003.60,0012.50,0001.45
2024-03-12 05:58:00,SystemResetWarning,0824.5,4.99,000.00,022.0,021.0,000.0,030.6,023.8,11.9,0000.0,0003.63,0013.03,0001.45
2024-03-12 05:59:00,SystemResetWarning,0824.5,5.00,000.00,022.0,021.0,000.0,030.6,023.8,11.9,0000.0,0003.61,0013.01,0001.46
